User: anonymous   Login
Location: Lincolnton
(35.4660°N, 81.2500°W)
Time: 01:52:47
(UTC-05:00)
Language:

Hubble Space Telescope - Orbit

View from above orbital plane
View from above orbital plane
View from above satellite
View from above satellite

Ground track
Ground track

The orbit data is extracted from the following two-line orbital elements,

1 20580U 90037B   17015.93753975 +.00000439 +00000-0 +16146-4 0  9994
2 20580 028.4702 293.4658 0002616 339.1199 108.1892 15.08646167267184
Epoch (UTC): 15 January 2017 22:30:03
Eccentricity: 0.0002616
inclination: 28.4702°
perigee height: 538 km
apogee height: 542 km
right ascension of ascending node: 293.4658°
argument of perigee: 339.1199°
revolutions per day: 15.08646167
mean anomaly at epoch: 108.1892°
orbit number at epoch: 26718

The dashed part of the orbit path shows where the satellite is in the earth's shadow,  

DLR